User: anonymous   Login
Location: Borovka
(49.7741°N, 14.5280°E)
Time: 22:26:55
(UTC+00:00)
Language:

YUBILEINY - Orbit

View from above orbital plane
View from above orbital plane
View from above satellite
View from above satellite

Ground track
Ground track

The orbit is defined by the following mean orbital elements,

1 32953U          26071.68555910 +.00000000 +00000-0 +46555-3 0 00008
2 32953  82.5007  55.4585 0019637 158.7134 201.4767 12.43176183    06
Epoch (UTC): 12 March 2026 16:27:12
Eccentricity: 0.0019637
inclination: 82.5007°
perigee height: 1478 km
apogee height: 1509 km
right ascension of ascending node: 55.4585°
argument of perigee: 158.7134°
revolutions per day: 12.43176183
mean anomaly at epoch: 201.4767°

The dashed part of the orbit path shows where the satellite is in the earth's shadow,  

DLR